Regional Weather Roundup
Issued by NWS

Home | Current Version | Previous Version | Text Only | Print | Product List | Glossary Off
Versions: 1 2 3 4 5 6 7 8 9 10 11 12 13 14 15 16 17 18 19 20 21 22 23 24 25 26 27 28 29 30 31 32 33 34 35 36 37 38 39 40 41 42 43 44 45 46 47 48 49 50

000
ASUS43 KLOT 030808
RWRIL

ILLINOIS REGIONAL WEATHER ROUNDUP
NATIONAL WEATHER SERVICE CHICAGO/ROMEOVILLE IL
300 AM CDT MON AUG 03 2015

NOTE: "FAIR" INDICATES FEW OR NO CLOUDS BELOW 12,000 FEET WITH NO
SIGNIFICANT WEATHER AND/OR OBSTRUCTIONS TO VISIBILITY.

* THESE STATIONS ARE NOT UNDER NWS QUALITY CONTROL. THEY ALSO MAY NOT
  REPORT WEATHER SUCH AS PRECIPITATION OR FOG.

ILZ001-002-007-009-015-016-024-030900-
NORTHWEST ILLINOIS

CITY           SKY/WX    TMP DP  RH WIND       PRES   REMARKS
MOLINE         CLEAR     72  63  73 W5        29.80R
STERLING*      CLEAR     72  66  83 W6        29.76S
SAVANNA*       PTCLDY    72  62  71 N6        29.79R
$$

ILZ003-004-008-010-011-017-018-030900-
NORTH CENTRAL ILLINOIS

CITY           SKY/WX    TMP DP  RH WIND       PRES   REMARKS
ROCKFORD       CLOUDY    70  65  84 W5        29.79R
FREEPORT*      PTCLDY    65  62  88 NW6       29.81R
ROCHELLE*      MOCLDY    69  67  92 CALM      29.79S
DE KALB*       MOCLDY    69  66  92 CALM      29.79S
PERU*          CLEAR     70  64  80 CALM      29.79R
$$

ILZ005-006-012>014-019>023-030900-
NORTHEAST ILLINOIS

CITY           SKY/WX    TMP DP  RH WIND       PRES   REMARKS
CHICAGO-OHARE  MOCLDY    68  66  93 W6        29.75S
CHICAGO-MIDWAY MOCLDY    69  65  86 W6        29.74S
AURORA         PTCLDY    67  64  90 CALM      29.77S
LANSING*       MOCLDY    65  64  97 CALM      29.75S
JOLIET*        CLEAR     68  66  94 CALM      29.76S
WAUKEGAN       MOCLDY    67  65  93 W5        29.74S
DUPAGE AIRPORT MOCLDY    67  65  93 CALM      29.76S
KANKAKEE*      CLEAR     69  64  85 CALM      29.76S
WHEELING       NOT AVBL
MORRIS*        CLEAR     69  64  83 CALM      29.75F
ROMEOVILLE*    PTCLDY    66  65  97 CALM      29.76F
NORTHERLY ISL    N/A     70  64  81 W7          N/A
$$

LMZ740>746-030900-
SOUTHERN LAKE MICHIGAN

STATION/POSITION SKY/WX   TEMP    WIND        PRES    VSBY  WAVE
                          AIR SEA DIR/SP/G                  HT/PER
                          (F)     (DEG/KT/KT) (MB)    (MI)  (FT/S)
HARRISON CRIB              69     270/  8/  9   N/A
BURNHAM HARBOR             70     250/  6/  8   N/A
CALUMET HARBOR             68     250/  3/  5   N/A
BURNS HARBOR               71     280/  9/ 10 1007.8S
MICHIGAN CITY              70     250/ 13/ 14   N/A
MICHIGAN CITY 6N           71 73  320/  6/ 10   N/A           3/ 5
ST. JOSEPH                 71 74  340/  8/ 12   N/A           4/ 5
$$

ILZ025>027-034>036-040-047-049-050-058-095>099-030900-
WEST-CENTRAL ILLINOIS

CITY           SKY/WX    TMP DP  RH WIND       PRES   REMARKS
QUINCY         PTCLDY    71  58  63 NW7       29.82R
GALESBURG*     PTCLDY    70  63  80 NW8       29.82S
MACOMB*        CLEAR     70  63  77 NW7       29.84R
JACKSONVILLE*  MOCLDY    71  69  93 CALM      29.82R
PITTSFIELD*    MOCLDY    74  61  63 W3        29.83S
$$

ILZ028>032-037-038-041>044-048-051>054-059>061-030900-
CENTRAL ILLINOIS

CITY           SKY/WX    TMP DP  RH WIND       PRES   REMARKS
PONTIAC        PTCLDY    76  73  91 W8        29.77S
BLOOMINGTON    CLEAR     76  72  87 W10       29.80F
DECATUR        CLEAR     74  67  78 SW8       29.80F
PEORIA         CLEAR     77  66  68 NW7       29.79F
LACON*         MOCLDY    75  63  66 NW8       29.77S
LINCOLN*       CLEAR     75  69  81 CALM      29.79S
SPRINGFIELD    PTCLDY    72  68  87 SW5       29.81R
TAYLORVILLE    PTCLDY    70  68  94 SW6       29.82R
$$

ILZ033-039-045-046-055>057-062-063-030900-
EAST-CENTRAL ILLINOIS

CITY           SKY/WX    TMP DP  RH WIND       PRES   REMARKS
CHAMPAIGN      CLEAR     72  68  87 SW7       29.79F
DANVILLE*      PTCLDY    74  71  88 SW10      29.74S
RANTOUL*       CLEAR     78  70  77 W12G20    29.77S HX  80
MATTOON        CLEAR     74  70  87 SW7       29.79F
PARIS*         PTCLDY    73  72  94 SW8       29.79F
$$

ILZ079-100>102-030900-
SOUTHWEST ILLINOIS

CITY           SKY/WX    TMP DP  RH WIND       PRES   REMARKS
ALTON          MOCLDY    74  67  81 SW3       29.83S
BELLEVILLE     PTCLDY    76  73  89 SW8       29.82R
CAHOKIA*       PTCLDY    80  69  69 SW5       29.82S HX  83
SPARTA*        CLEAR     76  71  83 SW7       29.84F
$$

ILZ064>066-069>071-074>076-080>082-084>086-088>090-092>094-030900-
SOUTH-CENTRAL ILLINOIS

CITY           SKY/WX    TMP DP  RH WIND       PRES   REMARKS
CARBONDALE     CLEAR     75  70  84 SW5       29.86S
CAIRO*         CLEAR     77  71  82 SW5       29.88R
EFFINGHAM*     PTCLDY    75  69  82 CALM      29.82F
MARION         CLEAR     79  72  78 SW5       29.87S HX  82
MT. VERNON     CLEAR     73  66  78 S3        29.84F
CENTRALIA*     CLEAR     75  68  80 SW6       29.83S
SALEM*         PTCLDY    77  71  81 SW6       29.83S
METROPOLIS*    CLEAR     73  73 100 CALM      29.88F
$$

ILZ067-068-072-073-078-083-087-091-030900-
SOUTHEAST ILLINOIS

CITY           SKY/WX    TMP DP  RH WIND       PRES   REMARKS
LAWRENCEVILLE  PTCLDY    74  71  91 S7        29.82F
FLORA*         PTCLDY    73  70  89 SW7       29.82F
FAIRFIELD*     PTCLDY    74  71  92 S5        29.82F
HARRISBURG*    PTCLDY    74  73  95 SW3       29.87S
ROBINSON*      PTCLDY    74  71  89 SW7       29.81F
CARMI*         PTCLDY    74  67  79 S6        29.84F
$$

ABBREVIATIONS USED IN REMARKS
   TC - TEMPERATURE IN CELSIUS
  WCI - WIND CHILL INDEX
   HX - HEAT INDEX
  VSB - VISIBILITY
$$




USA.gov is the U.S. government's official web portal to all federal, state and local government web resources and services.